ONEWEB-0221 (48789 NORAD) Tracking and Keplerian Element Data

This shows tracking and keplerian element data for the satellite.

Feedback or suggestion? Click here.




ElementValue
Catalog48789
NameONEWEB-0221
Epoch Orbit195
Epoch Day170.58334491
Epoch Year2021
RAAN268.8404
Inclination87.4074
Eccentricity0.0011506
Argument of Perigee159.4813
Mean Anonmoly162.4018
Mean Motion15.39823998
Decay Rate-0.0089548
L11 48789U 21045Y 21170.58334491 -.00895480 00000-0 -24509-1 0 9993
L22 48789 87.4074 268.8404 0011506 159.4813 162.4018 15.39823998 1958

Live tracking and technical data element details for ONEWEB-0221 (NORAD 48789). ONEWEB-0221 can be tracked NOW for your location showing map with azimuth and elevation plus other details from your city location.

Track the satellite on the map from your city or location and see movement details for azimuth, elevation, latitude, longitude, range, height, and movement on the map or in text.







IsCatalogInMostPopularTable: catalog: 48789, numindb: 8
Update: records affected: 1



GetName: 48789 ONEWEB-0221

Hit Count: updated at: Mon, 21 Jun 2021 03:58:42 GMT